Tracking 17264 objects as of 1-September-2015
HD Live streaming from Space Station

GLOBALSTAR M031

Track GLOBALSTAR M031 now!
10-day predictions
GLOBALSTAR M031 is classified as:


NORAD ID: 25946
Int'l Code: 1999-058D
Perigee: 1,615.8 km
Apogee: 1,619.1 km
Inclination: 52.0 °
Period: 118.4 minutes
Semi major axis: 7988 km
RCS: 2.5697 m2 (large)
Launch date: October 18, 1999
Source: Globalstar (GLOB)
Your satellite tracking list
Your tracking list is empty





NASA's NSSDC Master Catalog

Two Line Element Set (TLE):
1 25946U 99058D   15244.52744699 -.00000163  00000-0 -73606-3 0  9996
2 25946  51.9988   2.2509 0002096 116.3788 324.1070 12.15931529729673

Source of the keplerian elements: AFSPC

N2YO: 316